Location: Caltech
(34.1382°N, 118.1253°W)
Time: 10:11:38
(UTC-07:00)

Cosmos 2360 Rocket - Visible Passes

Search period start: 01 July 2016 00:00
Search period end: 11 July 2016 00:00
Orbit: 834 x 845 km, 71.0° (Epoch: 30 June)

Date Brightness Start Highest point End Pass type
(mag) Time Alt. Az. Time Alt. Az. Time Alt. Az.
01 Jul 2.4 20:37:45 10° NNW 20:43:20 59° ENE 20:48:55 10° SSE visible
01 Jul 4.6 22:23:38 10° WNW 22:26:44 15° W 22:29:50 10° SW visible
02 Jul 4.5 22:07:44 10° WNW 22:11:07 16° W 22:14:30 10° SW visible
03 Jul 4.5 21:51:51 10° WNW 21:55:30 18° W 21:59:08 10° SW visible
04 Jul 4.5 21:36:00 10° WNW 21:39:53 19° W 21:43:44 10° SW visible
05 Jul 4.4 21:20:11 10° NW 21:24:15 21° W 21:28:19 10° SSW visible
06 Jul 4.4 21:04:22 10° NW 21:08:37 22° W 21:12:52 10° SSW visible
07 Jul 4.4 20:48:34 10° NW 20:53:00 24° W 20:57:25 10° SSW visible
08 Jul 4.3 20:32:48 10° NW 20:37:22 26° WSW 20:41:56 10° SSW visible
